User: anonymous   Login
Location: Unspecified
(0.0000°N, 0.0000°E)
Time: 17:22:25
(UTC+00:00)
Language:

DNEPR OBJECT AB - Orbit

View from above orbital plane
View from above orbital plane
View from above satellite
View from above satellite

Ground track
Ground track

The orbit data is extracted from the following two-line orbital elements,

1 39441U 13066AB  18145.56491626 +.00000130 +00000-0 +25856-4 0  9999
2 39441 097.6024 160.3694 0080353 274.1257 085.0772 14.74773382241289
Epoch (UTC): 25 May 2018 13:33:28
Eccentricity: 0.0080353
inclination: 97.6024°
perigee height: 589 km
apogee height: 702 km
right ascension of ascending node: 160.3694°
argument of perigee: 274.1257°
revolutions per day: 14.74773382
mean anomaly at epoch: 85.0772°
orbit number at epoch: 24128

The dashed part of the orbit path shows where the satellite is in the earth's shadow,  

DLR